Location: Sungai Anya
(2.6167°N, 114.0500°E)
Time: 19:39:25
(UTC+00:00)

Cosmos 2333 Rocket - Pass Details

Date: 19 October 2021
Orbit: 837 x 865 km, 70.8° (Epoch: 08 December)

Event Time Altitude Azimuth Distance (km) Brightness Sun altitude
Rises 10:38:51 0° 163° (SSE) 3,383 5.3 -7.9°
Reaches altitude 10° 10:42:15 10° 142° (SE) 2,447 4.3 -8.7°
Maximum altitude 10:45:36 16° 105° (ESE) 2,042 3.7 -9.5°
Enters shadow 10:48:03 13° 76° (ENE) 2,265 3.7 -10.1°
